カタログに戻る

ANSER-LS

運用中科学SSO
NORAD 62644·PAYLOAD·🇪🇸 Spain

打ち上げ Jan 14, 2025 から Vandenberg Space Force Base

Loading…

次のパス (今後24時間)

TLE

最新Source: Space-Track

元期: Sep 13, 2026, 17:57 UTC

1 62644U 25009AM  26256.74813516  .00045102  00000-0  61242-3 0  9994
2 62644  97.3952 346.0416 0000484  75.2046 284.9263 15.57501361 92945

AllMySatでANSER-LSをリアルタイム追跡

Download on the App Store